Lakeville, MN

4:04 AM CDT on August 28, 2016 (GMT -0500)
Airlake

Weather History for KLVN - April, 2013

Change the Weather History Date:

Thursday, April 4, 2013

  Actual Average Record
Temperature  
Mean Temperature 39 °F -  
Max Temperature 48 °F 49 °F 73 °F (2005)
Min Temperature 28 °F 29 °F 7 °F (1975)
Degree Days  
Heating Degree Days 26    
Moisture  
Dew Point 28 °F    
Average Humidity 63    
Maximum Humidity 87    
Minimum Humidity 46    
Precipitation  
Precipitation 0.00 in - - ()
Sea Level Pressure  
Sea Level Pressure 30.06 in    
Wind  
Wind Speed 11 mph (West)    
Max Wind Speed 17 mph    
Max Gust Speed 22 mph    
Visibility 10 miles    
Events Rain    
Averages and records for this station are not official NWS values.
T = Trace of Precipitation, MM = Missing Value Source: NWS Daily Summary

Daily Weather History Graph

Daily Weather History Graph

Search for Another Location

Airport or City:

Trip Planner

Search our weather history database for the weather conditions in past years. The results will help you decide how hot, cold, wet, or windy it might be!

Date:

Astronomy

Apr. 04, 2013 Rise Set
Actual Time 6:47 AM CDT 7:44 PM CDT
Civil Twilight 6:18 AM CDT 8:14 PM CDT
Nautical Twilight 5:42 AM CDT 8:49 PM CDT
Astronomical Twilight 5:05 AM CDT 9:26 PM CDT
Moon 3:28 AM CDT (4/4) 1:50 PM CDT (4/4)
Length of Visible Light 13h 56m
Length of Day
12h 56m
Waning Crescent, 33% of the Moon is Illuminated
Apr 4
Waning Crescent
Apr 10
New
Apr 18
First Quarter
Apr 25
Full
May 2
Last Quarter

Hourly Weather History & Observations

Time (CDT) Temp. Windchill Dew Point Humidity Pressure Visibility Wind Dir Wind Speed Gust Speed Precip Events Conditions
12:03 AM 37.4 °F 28.5 °F 26.6 °F 65% 30.06 in 10.0 mi SSW 15.0 mph 21.9 mph N/A   Clear
12:24 AM 37.4 °F 28.9 °F 26.6 °F 65% 30.06 in 10.0 mi SSW 13.8 mph 20.7 mph N/A   Clear
12:43 AM 37.4 °F 29.8 °F 26.6 °F 65% 30.06 in 10.0 mi SSW 11.5 mph 20.7 mph N/A   Clear
1:03 AM 39.2 °F 32.5 °F 26.6 °F 61% 30.06 in 10.0 mi SSW 10.4 mph 20.7 mph N/A   Clear
1:23 AM 39.2 °F 33.6 °F 26.6 °F 61% 30.06 in 10.0 mi SSW 8.1 mph 21.9 mph N/A   Clear
1:43 AM 39.2 °F 33.6 °F 26.6 °F 61% 30.06 in 10.0 mi SSW 8.1 mph 21.9 mph N/A   Scattered Clouds
2:03 AM 39.2 °F 32.5 °F 26.6 °F 61% 30.05 in 10.0 mi SSW 10.4 mph 17.3 mph N/A   Clear
2:23 AM 39.2 °F 34.2 °F 26.6 °F 61% 30.05 in 10.0 mi SW 6.9 mph 21.9 mph N/A   Mostly Cloudy
2:43 AM 39.2 °F 33.0 °F 28.4 °F 65% 30.05 in 10.0 mi SW 9.2 mph 17.3 mph N/A   Mostly Cloudy
3:03 AM 39.2 °F 33.0 °F 28.4 °F 65% 30.04 in 10.0 mi SW 9.2 mph 21.9 mph N/A   Scattered Clouds
3:24 AM 39.2 °F 33.0 °F 28.4 °F 65% 30.03 in 10.0 mi SW 9.2 mph 18.4 mph N/A   Clear
3:43 AM 37.4 °F 30.3 °F 28.4 °F 70% 30.03 in 10.0 mi SW 10.4 mph 18.4 mph N/A   Scattered Clouds
4:03 AM 37.4 °F 31.4 °F 28.4 °F 70% 30.03 in 10.0 mi SW 8.1 mph - N/A   Scattered Clouds
4:24 AM 37.4 °F 30.8 °F 28.4 °F 70% 30.03 in 10.0 mi WSW 9.2 mph 16.1 mph N/A   Scattered Clouds
4:43 AM 37.4 °F 30.3 °F 28.4 °F 70% 30.02 in 10.0 mi SW 10.4 mph 18.4 mph N/A   Mostly Cloudy
5:03 AM 37.4 °F 32.1 °F 28.4 °F 70% 30.02 in 10.0 mi SW 6.9 mph - N/A   Overcast
5:24 AM 37.4 °F 30.8 °F 28.4 °F 70% 30.01 in 10.0 mi SW 9.2 mph - N/A   Mostly Cloudy
5:43 AM 37.4 °F 32.1 °F 28.4 °F 70% 30.01 in 10.0 mi SW 6.9 mph - N/A   Scattered Clouds
6:03 AM 37.4 °F 31.4 °F 28.4 °F 70% 30.01 in 10.0 mi SW 8.1 mph - N/A   Clear
6:24 AM 37.4 °F 31.4 °F 28.4 °F 70% 30.01 in 10.0 mi WSW 8.1 mph - N/A   Scattered Clouds
6:43 AM 37.4 °F 31.4 °F 28.4 °F 70% 30.01 in 10.0 mi SW 8.1 mph - N/A Rain Rain
7:03 AM 37.4 °F 32.8 °F 28.4 °F 70% 30.02 in 10.0 mi WSW 5.8 mph - N/A   Mostly Cloudy
7:24 AM 37.4 °F 31.4 °F 28.4 °F 70% 30.03 in 10.0 mi WSW 8.1 mph - N/A   Mostly Cloudy
7:43 AM 37.4 °F 29.8 °F 30.2 °F 75% 30.04 in 10.0 mi WSW 11.5 mph - N/A   Mostly Cloudy
8:03 AM 37.4 °F 30.8 °F 30.2 °F 75% 30.04 in 10.0 mi WSW 9.2 mph - N/A   Scattered Clouds
8:23 AM 37.4 °F 32.8 °F 30.2 °F 75% 30.04 in 10.0 mi West 5.8 mph - N/A   Clear
8:43 AM 37.4 °F 31.4 °F 32.0 °F 81% 30.04 in 10.0 mi WSW 8.1 mph - N/A   Clear
9:04 AM 37.4 °F 30.3 °F 33.8 °F 87% 30.04 in 7.0 mi West 10.4 mph - N/A   Scattered Clouds
9:23 AM 39.2 °F 32.0 °F 33.8 °F 81% 30.04 in 7.0 mi West 11.5 mph - N/A   Scattered Clouds
9:43 AM 39.2 °F 32.0 °F 33.8 °F 81% 30.04 in 7.0 mi WNW 11.5 mph - N/A   Scattered Clouds
10:04 AM 39.2 °F 32.0 °F 33.8 °F 81% 30.04 in 10.0 mi WNW 11.5 mph - N/A   Scattered Clouds
10:23 AM 42.8 °F 36.2 °F 33.8 °F 70% 30.05 in 10.0 mi WNW 12.7 mph - N/A   Clear
10:43 AM 42.8 °F 36.6 °F 33.8 °F 70% 30.05 in 10.0 mi NW 11.5 mph - N/A   Clear
11:23 AM 44.6 °F 39.2 °F 33.8 °F 66% 30.06 in 10.0 mi NW 10.4 mph 16.1 mph N/A   Clear
11:43 AM 44.6 °F 38.4 °F 33.8 °F 66% 30.06 in 10.0 mi WNW 12.7 mph - N/A   Scattered Clouds
12:04 PM 44.6 °F 38.4 °F 33.8 °F 66% 30.06 in 10.0 mi NW 12.7 mph 17.3 mph N/A   Scattered Clouds
12:23 PM 44.6 °F 38.1 °F 33.8 °F 66% 30.07 in 10.0 mi WNW 13.8 mph 18.4 mph N/A   Scattered Clouds
12:43 PM 46.4 °F 40.7 °F 33.8 °F 62% 30.07 in 10.0 mi NW 12.7 mph 18.4 mph N/A   Clear
1:03 PM 46.4 °F 42.4 °F 32.0 °F 57% 30.06 in 10.0 mi NNW 8.1 mph 16.1 mph N/A   Clear
1:23 PM 48.2 °F - 30.2 °F 50% 30.07 in 10.0 mi NNW 8.1 mph - N/A   Clear
1:43 PM 46.4 °F 42.9 °F 26.6 °F 46% 30.06 in 10.0 mi NNW 6.9 mph - N/A   Clear
2:03 PM 48.2 °F - 28.4 °F 46% 30.06 in 10.0 mi WNW 11.5 mph - N/A   Clear
2:23 PM 48.2 °F - 28.4 °F 46% 30.06 in 10.0 mi WNW 10.4 mph 18.4 mph N/A   Clear
2:43 PM 46.4 °F 40.7 °F 28.4 °F 50% 30.06 in 10.0 mi NW 12.7 mph 18.4 mph N/A   Clear
3:04 PM 46.4 °F 40.1 °F 28.4 °F 50% 30.06 in 10.0 mi WNW 15.0 mph - N/A   Clear
3:23 PM 46.4 °F 39.8 °F 28.4 °F 50% 30.06 in 10.0 mi NW 16.1 mph - N/A   Clear
3:43 PM 46.4 °F 39.5 °F 26.6 °F 46% 30.06 in 10.0 mi NW 17.3 mph 20.7 mph N/A   Clear
4:04 PM 46.4 °F 39.5 °F 26.6 °F 46% 30.06 in 10.0 mi NW 17.3 mph - N/A   Clear
4:23 PM 46.4 °F 41.5 °F 26.6 °F 46% 30.06 in 10.0 mi NNW 10.4 mph 13.8 mph N/A   Clear
4:43 PM 46.4 °F 40.4 °F 28.4 °F 50% 30.05 in 10.0 mi NW 13.8 mph 18.4 mph N/A   Clear
5:04 PM 46.4 °F 39.8 °F 26.6 °F 46% 30.06 in 10.0 mi WNW 16.1 mph 20.7 mph N/A   Clear
5:23 PM 46.4 °F 40.4 °F 26.6 °F 46% 30.06 in 10.0 mi NW 13.8 mph - N/A   Clear
5:43 PM 44.6 °F 39.2 °F 26.6 °F 49% 30.07 in 10.0 mi NW 10.4 mph 13.8 mph N/A   Clear
6:04 PM 44.6 °F 38.4 °F 26.6 °F 49% 30.07 in 10.0 mi WNW 12.7 mph - N/A   Clear
6:23 PM 44.6 °F 38.4 °F 26.6 °F 49% 30.08 in 10.0 mi NW 12.7 mph - N/A   Clear
6:43 PM 42.8 °F 36.2 °F 26.6 °F 53% 30.08 in 10.0 mi NW 12.7 mph 18.4 mph N/A   Clear
7:03 PM 41.0 °F 34.3 °F 26.6 °F 57% 30.09 in 10.0 mi NW 11.5 mph - N/A   Clear
7:23 PM 39.2 °F 32.5 °F 24.8 °F 56% 30.09 in 10.0 mi NW 10.4 mph - N/A   Clear
7:43 PM 39.2 °F 32.0 °F 26.6 °F 61% 30.09 in 10.0 mi NW 11.5 mph - N/A   Clear
8:03 PM 37.4 °F 30.3 °F 24.8 °F 60% 30.10 in 10.0 mi NW 10.4 mph - N/A   Clear
8:23 PM 37.4 °F 29.8 °F 24.8 °F 60% 30.10 in 10.0 mi NW 11.5 mph - N/A   Clear
8:43 PM 37.4 °F 30.3 °F 24.8 °F 60% 30.11 in 10.0 mi NW 10.4 mph - N/A   Clear
9:03 PM 37.4 °F 30.3 °F 23.0 °F 56% 30.12 in 10.0 mi NNW 10.4 mph - N/A   Clear
9:23 PM 35.6 °F 28.6 °F 23.0 °F 60% 30.13 in 10.0 mi NW 9.2 mph - N/A   Clear
9:43 PM 33.8 °F 28.6 °F 23.0 °F 65% 30.14 in 10.0 mi NW 5.8 mph - N/A   Clear
10:03 PM 32.0 °F 25.6 °F 23.0 °F 69% 30.14 in 10.0 mi NW 6.9 mph - N/A   Clear
10:23 PM 32.0 °F 24.2 °F 23.0 °F 69% 30.14 in 10.0 mi NW 9.2 mph - N/A   Clear
10:43 PM 32.0 °F 24.8 °F 23.0 °F 69% 30.15 in 10.0 mi NW 8.1 mph - N/A   Clear
11:03 PM 30.2 °F 23.4 °F 23.0 °F 75% 30.15 in 10.0 mi NW 6.9 mph - N/A   Clear
11:23 PM 30.2 °F 24.3 °F 23.0 °F 75% 30.16 in 10.0 mi NW 5.8 mph - N/A   Clear
11:43 PM 28.4 °F 22.2 °F 23.0 °F 80% 30.16 in 10.0 mi WNW 5.8 mph - N/A   Clear